Araxos, Greece

7:12 PM EET on February 25, 2017 (GMT +0200)
Araxos Air Base

Weather History for LGRX - September, 2013

Change the Weather History Date:

Monday, September 23, 2013

  Actual Average Record
Temperature  
Mean Temperature 72 °F -  
Max Temperature 80 °F 74 °F 87 °F (2001)
Min Temperature 64 °F 57 °F 55 °F (2003)
Cooling Degree Days 7    
Growing Degree Days 22 (Base 50)    
Moisture  
Dew Point 47 °F    
Average Humidity 41    
Maximum Humidity 73    
Minimum Humidity 23    
Precipitation  
Precipitation 0.00 in - - ()
Sea Level Pressure  
Sea Level Pressure 29.99 in    
Wind  
Wind Speed 4 mph ()    
Max Wind Speed 12 mph    
Max Gust Speed -    
Visibility 6.2 miles    
Events      
Averages and records for this station are not official NWS values.
T = Trace of Precipitation, MM = Missing Value Source: Averaged Metar Reports

Daily Weather History Graph

Daily Weather History Graph

Search for Another Location

Airport or City:

Trip Planner

Search our weather history database for the weather conditions in past years. The results will help you decide how hot, cold, wet, or windy it might be!

Date:

Astronomy

Sep. 23, 2013 Rise Set
Actual Time 7:22 AM EEST 7:29 PM EEST
Civil Twilight 6:56 AM EEST 7:56 PM EEST
Nautical Twilight 6:25 AM EEST 8:26 PM EEST
Astronomical Twilight 5:54 AM EEST 8:57 PM EEST
Moon 9:52 PM EEST (9/23) 11:20 AM EEST (9/23)
Length of Visible Light 12h 59m
Length of Day
12h 06m
Waning Gibbous, 84% of the Moon is Illuminated
Sep 23
Waning Gibbous
Sep 27
Last Quarter
Oct 5
New
Oct 12
First Quarter
Oct 19
Full

Hourly Weather History & Observations

Time (EEST) Temp. Dew Point Humidity Pressure Visibility Wind Dir Wind Speed Gust Speed Precip Events Conditions
12:20 AM 69.8 °F 57.2 °F 64% 30.01 in 6.2 mi Calm Calm - N/A   Scattered Clouds
1:50 AM 66.2 °F 57.2 °F 73% 30.04 in 6.2 mi Calm Calm - N/A   Scattered Clouds
2:50 AM 68.0 °F 57.2 °F 68% 30.01 in 6.2 mi Calm Calm - N/A   Scattered Clouds
4:50 AM 68.0 °F 46.4 °F 46% 30.01 in 6.2 mi Calm Calm - N/A   Scattered Clouds
5:50 AM 68.0 °F 46.4 °F 46% 29.98 in 6.2 mi East 8.1 mph - N/A   Scattered Clouds
6:20 AM 66.2 °F 46.4 °F 49% 29.98 in 6.2 mi ENE 5.8 mph - N/A   Scattered Clouds
6:50 AM 64.4 °F 48.2 °F 56% 29.98 in 6.2 mi SSE 5.8 mph - N/A   Scattered Clouds
7:20 AM 64.4 °F 46.4 °F 52% 30.01 in 6.2 mi East 5.8 mph - N/A   Scattered Clouds
7:50 AM 68.0 °F 44.6 °F 43% 30.01 in 6.2 mi Variable 3.5 mph - N/A   Scattered Clouds
8:20 AM 68.0 °F 46.4 °F 46% 30.01 in 6.2 mi Variable 3.5 mph - N/A   Scattered Clouds
8:50 AM 69.8 °F 44.6 °F 40% 30.01 in 6.2 mi Variable 3.5 mph - N/A   Scattered Clouds
9:20 AM 69.8 °F 44.6 °F 40% 30.01 in 6.2 mi Variable 3.5 mph - N/A   Scattered Clouds
9:50 AM 73.4 °F 48.2 °F 41% 30.01 in 6.2 mi Variable 3.5 mph - N/A   Partly Cloudy
10:20 AM 75.2 °F 50.0 °F 41% 30.01 in 6.2 mi East 8.1 mph - N/A   Partly Cloudy
10:50 AM 77.0 °F 44.6 °F 32% 30.01 in 6.2 mi Variable 3.5 mph - N/A   Partly Cloudy
11:20 AM 77.0 °F 42.8 °F 29% 30.01 in 6.2 mi Calm Calm - N/A   Partly Cloudy
11:50 AM 77.0 °F 42.8 °F 29% 30.01 in 6.2 mi North 8.1 mph - N/A   Partly Cloudy
12:20 PM 78.8 °F 44.6 °F 30% 30.01 in 6.2 mi North 8.1 mph - N/A   Partly Cloudy
12:50 PM 78.8 °F 44.6 °F 30% 30.01 in 6.2 mi NNE 9.2 mph - N/A   Partly Cloudy
1:20 PM 78.8 °F 44.6 °F 30% 30.01 in 6.2 mi NNE 11.5 mph - N/A   Partly Cloudy
1:50 PM 78.8 °F 44.6 °F 30% 30.01 in 6.2 mi NE 11.5 mph - N/A   Partly Cloudy
2:20 PM 78.8 °F 44.6 °F 30% 30.01 in 6.2 mi NE 11.5 mph - N/A   Partly Cloudy
2:50 PM 80.6 °F 42.8 °F 26% 29.98 in 6.2 mi NE 8.1 mph - N/A   Partly Cloudy
3:20 PM 80.6 °F 41.0 °F 24% 29.98 in 6.2 mi NNW 6.9 mph - N/A   Partly Cloudy
3:50 PM 80.6 °F 42.8 °F 26% 29.98 in 6.2 mi North 6.9 mph - N/A   Partly Cloudy
4:20 PM 80.6 °F 39.2 °F 23% 29.98 in 6.2 mi NW 6.9 mph - N/A   Partly Cloudy
4:50 PM 78.8 °F 46.4 °F 32% 29.95 in 6.2 mi WNW 9.2 mph - N/A   Partly Cloudy
5:20 PM 78.8 °F 50.0 °F 36% 29.95 in 6.2 mi West 9.2 mph - N/A   Partly Cloudy
5:50 PM 77.0 °F 48.2 °F 36% 29.95 in 6.2 mi West 6.9 mph - N/A   Partly Cloudy
6:20 PM 77.0 °F 46.4 °F 34% 29.95 in 6.2 mi West 8.1 mph - N/A   Partly Cloudy
6:50 PM 75.2 °F 48.2 °F 38% 29.95 in 6.2 mi West 4.6 mph - N/A   Partly Cloudy
7:20 PM 73.4 °F 50.0 °F 44% 29.95 in 6.2 mi West 4.6 mph - N/A   Partly Cloudy
7:50 PM 71.6 °F 51.8 °F 50% 29.95 in 6.2 mi Calm Calm - N/A   Partly Cloudy
8:20 PM 71.6 °F 51.8 °F 50% 29.95 in 6.2 mi Calm Calm - N/A   Partly Cloudy
8:50 PM 73.4 °F 50.0 °F 44% 29.95 in 6.2 mi WNW 4.6 mph - N/A   Partly Cloudy
9:50 PM 71.6 °F 51.8 °F 50% 29.98 in 6.2 mi WNW 4.6 mph - N/A   Partly Cloudy
10:50 PM 69.8 °F 51.8 °F 53% 29.98 in 6.2 mi Variable 3.5 mph - N/A   Partly Cloudy
11:50 PM 66.2 °F 53.6 °F 64% 29.98 in 6.2 mi Calm Calm - N/A   Partly Cloudy